Starlink 11416

operational
NORAD ID: 62594 Int'l Des: 2025-008 Owner: SPXS Country: US Constellation: starlink
LEOCIRCULAR

About Starlink 11416

Description loading...

Live Position

Loading 3D Globe...

Upcoming Passes

Altitude History

Altitude vs Time

uPlot chart will show altitude changes over time

Two-Line Element Set

1 62594U 25008H 25305.60710990 .00315558 00000-0 23670-2 0 9995
2 62594 43.0010 177.8573 0001843 251.8447 108.2220 15.70875254 46976
Epoch: Nov 1, 2025 • Age: 54 hours

Current Status

Altitude 356.0 km
Velocity 7.70 km/s
Sub-Earth Point -19.39°S, 10.28°E
Launch Date Jan 13, 2025
Age 0.8 years
Type internet

Technical Details

Classification Payload
Mass 960.00 kg
Dry Mass 910.00 kg
Total Mass 960.00 kg
Length 0.30 m
Diameter 4.10 m
Span 29.00 m
Shape Box + pan
Manufacturer SPXS
Bus Type Starlink V2MD
Phase Status In Orbit
Owner/State SPXS/US

Large Constellations

Loading constellations...